#timestamp,LO_Frequency,Hit,StdDev 
1672617615.5,286047002.4,N
1672617635.3,286047000.2,N
1672617655.1,286047001.0,N
1672617675.9,286047000.7,N
1672617695.7,286046998.4,N
1672617715.6,286046998.2,N
1672617735.4,286046996.6,N
1672617755.2,286046998.6,N
1672617775.1,286046998.9,N
1672617776.0,286046998.9,N
1672617795.8,286046998.4,N
1672617815.7,286046998.4,N
1672617835.5,286046998.4,N
1672617855.3,286046998.1,N
1672617875.2,286046999.0,N
1672617895.0,286046999.1,N
1672617895.9,286046999.1,N
1672617915.8,286046999.4,N
1672617935.6,286046998.8,N
1672617955.4,286046998.6,N
1672617975.3,286046998.7,N
1672617995.1,286046996.9,N
1672618015.9,286046998.1,N
1672618035.7,286047000.7,N
1672618055.5,286047001.0,N
1672618075.4,286047002.3,N
1672618095.2,286047002.4,N
1672618115.0,286047002.4,N
1672618116.0,286047002.4,N
1672618135.8,286047002.4,N
1672618155.6,286047000.4,N
1672618175.5,286046999.8,N
1672618195.3,286046999.9,N
1672618215.1,286047002.8,N
1672618235.9,286047002.4,N
1672618255.7,286047002.5,N
1672618275.6,286046999.8,N
1672618295.4,286046999.8,N
1672618315.2,286047000.2,N
1672618335.1,286047001.0,N
1672618336.0,286047001.0,N
1672618355.8,286047000.4,N
1672618375.7,286047000.1,N
1672618395.5,286047000.4,N
1672618415.3,286047000.9,N
1672618435.2,286047000.7,N
1672618455.0,286047001.2,N
1672618455.9,286047001.2,N
1672618475.7,286047001.2,N
1672618495.6,286046998.6,N
1672618515.4,286046999.4,N
1672618535.3,286046998.3,N
1672618555.1,286046999.4,N
1672618556.0,286046999.4,N
1672618575.8,286046998.3,N
1672618595.7,286046998.9,N
1672618615.5,286046998.1,N
1672618635.3,286046998.9,N
1672618655.2,286046999.0,N
1672618675.0,286047001.1,N
1672618675.9,286047001.1,N
1672618695.8,286047000.0,N
1672618715.6,286046999.7,N
1672618735.4,286047000.9,N
1672618755.3,286047000.8,N
1672618775.1,286047001.9,N
1672618795.8,286047002.3,N
1672618815.7,286047002.4,N
1672618835.5,286047002.5,N
1672618855.4,286047002.8,N
1672618875.2,286047000.1,N
1672618895.0,286047000.6,N
1672618895.9,286047000.6,N
1672618915.8,286047000.7,N
1672618935.6,286046998.4,N
1672618955.4,286046998.8,N
1672618975.3,286046998.7,N
1672618995.1,286046999.3,N
1672619015.9,286047000.6,N
1672619035.7,286046999.7,N
1672619055.5,286046999.8,N
1672619075.4,286047000.0,N
1672619095.2,286047000.3,N
1672619115.0,286047000.4,N
1672619116.0,286047000.4,N
1672619135.8,286047001.1,N
1672619155.6,286046998.5,N
1672619175.5,286046999.8,N
1672619195.3,286046999.7,N
1672619215.1,286046999.9,N
1672619235.9,286047000.8,N
1672619255.7,286047001.1,N
1672619275.6,286046998.6,N
1672619295.4,286046998.4,N
1672619315.2,286046998.6,N
1672619335.1,286046999.5,N
1672619336.0,286046999.5,N
1672619355.8,286046996.7,N
1672619375.7,286046999.3,N
1672619395.5,286046998.7,N
1672619415.3,286046998.7,N
1672619435.2,286046998.3,N
1672619455.0,286046998.6,N
1672619455.9,286046998.6,N
1672619475.7,286047000.7,N
1672619495.6,286046999.0,N
1672619515.4,286046998.1,N
1672619535.3,286047000.4,N
1672619555.1,286047000.3,N
1672619575.8,286047000.3,N
1672619595.7,286047001.2,N
1672619615.5,286046998.5,N
1672619635.4,286047000.3,N
1672619655.2,286046998.3,N
1672619675.0,286047001.2,N
1672619675.9,286047001.2,N
1672619695.8,286046998.1,N
1672619715.6,286046998.2,N
1672619735.4,286046998.7,N
1672619755.3,286046998.8,N
1672619775.1,286047001.1,N
1672619795.9,286046998.7,N
1672619815.7,286047000.9,N
1672619835.5,286047000.0,N
1672619855.4,286047000.7,N
1672619875.2,286047000.6,N
1672619895.0,286046999.3,N
1672619896.0,286046999.3,N
1672619915.8,286046999.6,N
1672619935.6,286046998.3,N
1672619955.5,286046999.0,N
1672619975.3,286046998.7,N
1672619995.1,286046998.8,N
1672620015.9,286046999.6,N
1672620035.7,286046999.4,N
1672620055.6,286046998.9,N
1672620075.4,286046999.5,N
1672620095.2,286046999.6,N
1672620115.1,286046997.1,N
1672620116.0,286046997.1,N
1672620135.8,286046999.6,N
1672620155.7,286046997.4,N
1672620175.5,286046995.0,Y
1672620195.3,286046998.5,P
1672620215.2,286046998.2,P
1672620235.0,286047000.6,N
1672620235.9,286047000.6,N
1672620255.7,286047000.0,N
1672620275.6,286047000.6,N
1672620295.4,286046998.5,N
1672620315.3,286046998.2,N
1672620335.1,286046998.3,N
1672620336.0,286046998.3,N
1672620355.8,286046998.7,N
1672620375.7,286046999.6,N
1672620395.5,286046999.0,N
1672620415.3,286047000.4,N
1672620435.2,286046999.8,N
1672620455.0,286047000.6,N
1672620455.9,286047000.6,N
1672620475.8,286047000.3,N
1672620495.6,286047000.0,N
1672620515.4,286046999.8,N
1672620535.3,286046999.9,N
1672620555.1,286046999.9,N
1672620575.8,286047001.2,N
1672620595.7,286046998.4,N
1672620615.5,286047000.6,N
1672620635.4,286047000.6,N
1672620655.2,286047000.9,N
1672620675.0,286047000.6,N
1672620675.9,286047000.6,N
1672620695.8,286047001.1,N
1672620715.6,286047001.2,N
1672620735.4,286047001.0,N
1672620755.3,286047001.2,N
1672620775.1,286046998.3,N
1672620795.9,286046998.5,N
1672620815.7,286047001.0,N
1672620835.5,286047001.2,N
1672620855.4,286047001.0,N
1672620875.2,286047000.3,N
1672620895.0,286047000.4,N
1672620895.9,286047000.4,N
1672620915.8,286047000.9,N
1672620935.6,286047000.7,N
1672620955.5,286047001.0,N
1672620975.3,286046998.8,N
1672620995.1,286046999.3,N
1672621015.9,286046999.5,N
1672621035.7,286046999.6,N
1672621055.6,286046996.5,Y
1672621075.4,286046997.0,P
1672621095.2,286046997.8,N
1672621115.1,286046996.9,N
1672621116.0,286046996.9,N
1672621135.8,286046999.5,N
1672621155.6,286046999.1,N
1672621175.5,286046999.2,N
1672621195.3,286046998.8,N
